Year,Month,Day,Hour,Minute,Value (Times are PST for temperature in C)
2002,08,31,00,00,13.70
2002,08,31,00,01,13.70
2002,08,31,00,02,13.70
2002,08,31,00,03,13.70
2002,08,31,00,04,13.70
2002,08,31,00,05,13.70
2002,08,31,00,06,13.70
2002,08,31,00,07,13.60
2002,08,31,00,08,13.60
2002,08,31,00,09,13.60
2002,08,31,00,10,13.50
2002,08,31,00,11,13.40
2002,08,31,00,12,13.40
2002,08,31,00,13,13.40
2002,08,31,00,14,13.40
2002,08,31,00,15,13.40
2002,08,31,00,16,13.30
2002,08,31,00,17,13.30
2002,08,31,00,18,13.30
2002,08,31,00,19,13.30
2002,08,31,00,20,13.30
2002,08,31,00,21,13.30
2002,08,31,00,22,13.20
2002,08,31,00,23,13.20
2002,08,31,00,24,13.20
2002,08,31,00,25,13.20
2002,08,31,00,26,13.20
2002,08,31,00,27,13.10
2002,08,31,00,28,13.10
2002,08,31,00,29,13.10
2002,08,31,00,30,13.10
2002,08,31,00,31,13.00
2002,08,31,00,32,13.00
2002,08,31,00,33,13.00
2002,08,31,00,34,13.00
2002,08,31,00,35,12.90
2002,08,31,00,36,12.90
2002,08,31,00,37,12.90
2002,08,31,00,38,12.90
2002,08,31,00,39,12.90
2002,08,31,00,40,12.90
2002,08,31,00,41,12.90
2002,08,31,00,42,12.90
2002,08,31,00,43,12.80
2002,08,31,00,44,12.80
2002,08,31,00,45,12.80
2002,08,31,00,46,12.80
2002,08,31,00,47,12.80
2002,08,31,00,48,12.80
2002,08,31,00,49,12.80
2002,08,31,00,50,12.70
2002,08,31,00,51,12.70
2002,08,31,00,52,12.70
2002,08,31,00,53,12.70
2002,08,31,00,54,12.60
2002,08,31,00,55,12.60
2002,08,31,00,56,12.60
2002,08,31,00,57,12.60
2002,08,31,00,58,12.60
2002,08,31,00,59,12.60
2002,08,31,01,00,12.60
2002,08,31,01,01,12.60
2002,08,31,01,02,12.60
2002,08,31,01,03,12.50
2002,08,31,01,04,12.50
2002,08,31,01,05,12.50
2002,08,31,01,06,12.50
2002,08,31,01,07,12.50
2002,08,31,01,08,12.50
2002,08,31,01,09,12.60
2002,08,31,01,10,12.60
2002,08,31,01,11,12.50
2002,08,31,01,12,12.50
2002,08,31,01,13,12.50
2002,08,31,01,14,12.50
2002,08,31,01,15,12.50
2002,08,31,01,16,12.50
2002,08,31,01,17,12.50
2002,08,31,01,18,12.50
2002,08,31,01,19,12.50
2002,08,31,01,20,12.50
2002,08,31,01,21,12.50
2002,08,31,01,22,12.50
2002,08,31,01,23,12.50
2002,08,31,01,24,12.50
2002,08,31,01,25,12.50
2002,08,31,01,26,12.50
2002,08,31,01,27,12.40
2002,08,31,01,28,12.40
2002,08,31,01,29,12.40
2002,08,31,01,30,12.30
2002,08,31,01,31,12.30
2002,08,31,01,32,12.30
2002,08,31,01,33,12.30
2002,08,31,01,34,12.30
2002,08,31,01,35,12.20
2002,08,31,01,36,12.10
2002,08,31,01,37,12.10
2002,08,31,01,38,12.10
2002,08,31,01,39,12.00
2002,08,31,01,40,12.00
2002,08,31,01,41,12.00
2002,08,31,01,42,12.00
2002,08,31,01,43,12.00
2002,08,31,01,44,12.00
2002,08,31,01,45,12.00
2002,08,31,01,46,12.00
2002,08,31,01,47,11.90
2002,08,31,01,48,11.90
2002,08,31,01,49,11.90
2002,08,31,01,50,12.00
2002,08,31,01,51,12.00
2002,08,31,01,52,12.00
2002,08,31,01,53,12.00
2002,08,31,01,54,12.00
2002,08,31,01,55,12.00
2002,08,31,01,56,12.00
2002,08,31,01,57,12.00
2002,08,31,01,58,12.00
2002,08,31,01,59,12.00
2002,08,31,02,00,12.00
2002,08,31,02,01,12.00
2002,08,31,02,02,11.90
2002,08,31,02,03,11.90
2002,08,31,02,04,11.90
2002,08,31,02,05,11.90
2002,08,31,02,06,11.90
2002,08,31,02,07,11.90
2002,08,31,02,08,11.90
2002,08,31,02,09,12.00
2002,08,31,02,10,12.00
2002,08,31,02,11,12.00
2002,08,31,02,12,12.00
2002,08,31,02,13,12.00
2002,08,31,02,14,11.90
2002,08,31,02,15,11.90
2002,08,31,02,16,11.90
2002,08,31,02,17,11.90
2002,08,31,02,18,11.80
2002,08,31,02,19,11.90
2002,08,31,02,20,11.90
2002,08,31,02,21,12.00
2002,08,31,02,22,12.00
2002,08,31,02,23,12.00
2002,08,31,02,24,12.00
2002,08,31,02,25,12.00
2002,08,31,02,26,12.00
2002,08,31,02,27,12.00
2002,08,31,02,28,12.10
2002,08,31,02,29,12.10
2002,08,31,02,30,12.10
2002,08,31,02,31,12.10
2002,08,31,02,32,12.10
2002,08,31,02,33,12.10
2002,08,31,02,34,12.10
2002,08,31,02,35,12.10
2002,08,31,02,36,12.10
2002,08,31,02,37,12.00
2002,08,31,02,38,12.00
2002,08,31,02,39,12.00
2002,08,31,02,40,12.00
2002,08,31,02,41,12.00
2002,08,31,02,42,11.90
2002,08,31,02,43,11.90
2002,08,31,02,44,11.90
2002,08,31,02,45,11.90
2002,08,31,02,46,11.90
2002,08,31,02,47,12.00
2002,08,31,02,48,11.90
2002,08,31,02,49,11.90
2002,08,31,02,50,11.90
2002,08,31,02,51,11.90
2002,08,31,02,52,11.90
2002,08,31,02,53,11.80
2002,08,31,02,54,11.80
2002,08,31,02,55,11.80
2002,08,31,02,56,11.80
2002,08,31,02,57,11.80
2002,08,31,02,58,11.80
2002,08,31,02,59,11.80
2002,08,31,03,00,11.80
2002,08,31,03,01,11.80
2002,08,31,03,02,11.80
2002,08,31,03,03,11.80
2002,08,31,03,04,11.80
2002,08,31,03,05,11.80
2002,08,31,03,06,11.90
2002,08,31,03,07,11.90
2002,08,31,03,08,11.90
2002,08,31,03,09,11.80
2002,08,31,03,10,11.80
2002,08,31,03,11,11.80
2002,08,31,03,12,11.80
2002,08,31,03,13,11.80
2002,08,31,03,14,11.80
2002,08,31,03,15,11.80
2002,08,31,03,16,11.80
2002,08,31,03,17,11.80
2002,08,31,03,18,11.80
2002,08,31,03,19,11.80
2002,08,31,03,20,11.80
2002,08,31,03,21,11.80
2002,08,31,03,22,11.80
2002,08,31,03,23,11.80
2002,08,31,03,24,11.80
2002,08,31,03,25,11.80
2002,08,31,03,26,11.80
2002,08,31,03,27,11.80
2002,08,31,03,28,11.80
2002,08,31,03,29,11.80
2002,08,31,03,30,11.80
2002,08,31,03,31,11.80
2002,08,31,03,32,11.80
2002,08,31,03,33,11.70
2002,08,31,03,34,11.70
2002,08,31,03,35,11.70
2002,08,31,03,36,11.70
2002,08,31,03,37,11.70
2002,08,31,03,38,11.70
2002,08,31,03,39,11.70
2002,08,31,03,40,11.70
2002,08,31,03,41,11.70
2002,08,31,03,42,11.70
2002,08,31,03,43,11.70
2002,08,31,03,44,11.70
2002,08,31,03,45,11.70
2002,08,31,03,46,11.70
2002,08,31,03,47,11.70
2002,08,31,03,48,11.70
2002,08,31,03,49,11.70
2002,08,31,03,50,11.70
2002,08,31,03,51,11.70
2002,08,31,03,52,11.70
2002,08,31,03,53,11.70
2002,08,31,03,54,11.70
2002,08,31,03,55,11.70
2002,08,31,03,56,11.60
2002,08,31,03,57,11.60
2002,08,31,03,58,11.60
2002,08,31,03,59,11.60
2002,08,31,04,00,11.60
2002,08,31,04,01,11.60
2002,08,31,04,02,11.60
2002,08,31,04,03,11.50
2002,08,31,04,04,11.40
2002,08,31,04,05,11.40
2002,08,31,04,06,11.40
2002,08,31,04,07,11.40
2002,08,31,04,08,11.40
2002,08,31,04,09,11.40
2002,08,31,04,10,11.40
2002,08,31,04,11,11.40
2002,08,31,04,12,11.40
2002,08,31,04,13,11.40
2002,08,31,04,14,11.60
2002,08,31,04,15,11.50
2002,08,31,04,16,11.40
2002,08,31,04,17,11.40
2002,08,31,04,18,11.40
2002,08,31,04,19,11.40
2002,08,31,04,20,11.40
2002,08,31,04,21,11.40
2002,08,31,04,22,11.40
2002,08,31,04,23,11.40
2002,08,31,04,24,11.40
2002,08,31,04,25,11.40
2002,08,31,04,26,11.40
2002,08,31,04,27,11.40
2002,08,31,04,28,11.40
2002,08,31,04,29,11.40
2002,08,31,04,30,11.40
2002,08,31,04,31,11.50
2002,08,31,04,32,11.60
2002,08,31,04,33,11.60
2002,08,31,04,34,11.60
2002,08,31,04,35,11.60
2002,08,31,04,36,11.60
2002,08,31,04,37,11.60
2002,08,31,04,38,11.60
2002,08,31,04,39,11.60
2002,08,31,04,40,11.60
2002,08,31,04,41,11.60
2002,08,31,04,42,11.60
2002,08,31,04,43,11.60
2002,08,31,04,44,11.60
2002,08,31,04,45,11.60
2002,08,31,04,46,11.60
2002,08,31,04,47,11.60
2002,08,31,04,48,11.60
2002,08,31,04,49,11.60
2002,08,31,04,50,11.60
2002,08,31,04,51,11.50
2002,08,31,04,52,11.40
2002,08,31,04,53,11.40
2002,08,31,04,54,11.40
2002,08,31,04,55,11.40
2002,08,31,04,56,11.40
2002,08,31,04,57,11.40
2002,08,31,04,58,11.40
2002,08,31,04,59,11.40
2002,08,31,05,00,11.40
2002,08,31,05,01,11.40
2002,08,31,05,02,11.40
2002,08,31,05,03,11.40
2002,08,31,05,04,11.30
2002,08,31,05,05,11.30
2002,08,31,05,06,11.30
2002,08,31,05,07,11.20
2002,08,31,05,08,11.10
2002,08,31,05,09,11.10
2002,08,31,05,10,11.00
2002,08,31,05,11,10.90
2002,08,31,05,12,10.90
2002,08,31,05,13,10.90
2002,08,31,05,14,10.90
2002,08,31,05,15,10.90
2002,08,31,05,16,10.90
2002,08,31,05,17,10.80
2002,08,31,05,18,10.80
2002,08,31,05,19,10.80
2002,08,31,05,20,10.80
2002,08,31,05,21,10.80
2002,08,31,05,22,10.80
2002,08,31,05,23,10.80
2002,08,31,05,24,10.80
2002,08,31,05,25,10.80
2002,08,31,05,26,10.80
2002,08,31,05,27,10.80
2002,08,31,05,28,10.80
2002,08,31,05,29,10.80
2002,08,31,05,30,10.70
2002,08,31,05,31,10.70
2002,08,31,05,32,10.70
2002,08,31,05,33,10.70
2002,08,31,05,34,10.70
2002,08,31,05,35,10.70
2002,08,31,05,36,10.70
2002,08,31,05,37,10.70
2002,08,31,05,38,10.70
2002,08,31,05,39,10.70
2002,08,31,05,40,10.70
2002,08,31,05,41,10.60
2002,08,31,05,42,10.60
2002,08,31,05,43,10.60
2002,08,31,05,44,10.60
2002,08,31,05,45,10.60
2002,08,31,05,46,10.60
2002,08,31,05,47,10.60
2002,08,31,05,48,10.60
2002,08,31,05,49,10.60
2002,08,31,05,50,10.60
2002,08,31,05,51,10.60
2002,08,31,05,52,10.60
2002,08,31,05,53,10.50
2002,08,31,05,54,10.40
2002,08,31,05,55,10.40
2002,08,31,05,56,10.40
2002,08,31,05,57,10.40
2002,08,31,05,58,10.40
2002,08,31,05,59,10.40
2002,08,31,06,00,10.40
2002,08,31,06,01,10.40
2002,08,31,06,02,10.40
2002,08,31,06,03,10.40
2002,08,31,06,04,10.40
2002,08,31,06,05,10.40
2002,08,31,06,06,10.40
2002,08,31,06,07,10.40
2002,08,31,06,08,10.40
2002,08,31,06,09,10.40
2002,08,31,06,10,10.50
2002,08,31,06,11,10.60
2002,08,31,06,12,10.60
2002,08,31,06,13,10.60
2002,08,31,06,14,10.60
2002,08,31,06,15,10.50
2002,08,31,06,16,10.40
2002,08,31,06,17,10.40
2002,08,31,06,18,10.40
2002,08,31,06,19,10.40
2002,08,31,06,20,10.40
2002,08,31,06,21,10.40
2002,08,31,06,22,10.40
2002,08,31,06,23,10.40
2002,08,31,06,24,10.40
2002,08,31,06,25,10.40
2002,08,31,06,26,10.40
2002,08,31,06,27,10.40
2002,08,31,06,28,10.40
2002,08,31,06,29,10.40
2002,08,31,06,30,10.40
2002,08,31,06,31,10.40
2002,08,31,06,32,10.40
2002,08,31,06,33,10.40
2002,08,31,06,34,10.40
2002,08,31,06,35,10.40
2002,08,31,06,36,10.30
2002,08,31,06,37,10.30
2002,08,31,06,38,10.30
2002,08,31,06,39,10.30
2002,08,31,06,40,10.30
2002,08,31,06,41,10.30
2002,08,31,06,42,10.30
2002,08,31,06,43,10.30
2002,08,31,06,44,10.30
2002,08,31,06,45,10.30
2002,08,31,06,46,10.40
2002,08,31,06,47,10.40
2002,08,31,06,48,10.40
2002,08,31,06,49,10.40
2002,08,31,06,50,10.40
2002,08,31,06,51,10.40
2002,08,31,06,52,10.40
2002,08,31,06,53,10.40
2002,08,31,06,54,10.40
2002,08,31,06,55,10.40
2002,08,31,06,56,10.40
2002,08,31,06,57,10.30
2002,08,31,06,58,10.30
2002,08,31,06,59,10.30
2002,08,31,07,00,10.30
2002,08,31,07,01,10.30
2002,08,31,07,02,10.30
2002,08,31,07,03,10.30
2002,08,31,07,04,10.30
2002,08,31,07,05,10.30
2002,08,31,07,06,10.30
2002,08,31,07,07,10.30
2002,08,31,07,08,10.40
2002,08,31,07,09,10.40
2002,08,31,07,10,10.40
2002,08,31,07,11,10.40
2002,08,31,07,12,10.40
2002,08,31,07,13,10.50
2002,08,31,07,14,10.60
2002,08,31,07,15,10.60
2002,08,31,07,16,10.60
2002,08,31,07,17,10.60
2002,08,31,07,18,10.60
2002,08,31,07,19,10.60
2002,08,31,07,20,10.60
2002,08,31,07,21,10.60
2002,08,31,07,22,10.60
2002,08,31,07,23,10.60
2002,08,31,07,24,10.80
2002,08,31,07,25,10.90
2002,08,31,07,26,11.00
2002,08,31,07,27,11.10
2002,08,31,07,28,11.10
2002,08,31,07,29,11.20
2002,08,31,07,30,11.20
2002,08,31,07,31,11.30
2002,08,31,07,32,11.30
2002,08,31,07,33,11.40
2002,08,31,07,34,11.40
2002,08,31,07,35,11.40
2002,08,31,07,36,11.40
2002,08,31,07,37,11.40
2002,08,31,07,38,11.50
2002,08,31,07,39,11.60
2002,08,31,07,40,11.60
2002,08,31,07,41,11.60
2002,08,31,07,42,11.40
2002,08,31,07,43,11.40
2002,08,31,07,44,11.40
2002,08,31,07,45,11.40
2002,08,31,07,46,11.60
2002,08,31,07,47,11.60
2002,08,31,07,48,11.60
2002,08,31,07,49,11.70
2002,08,31,07,50,11.80
2002,08,31,07,51,11.80
2002,08,31,07,52,11.90
2002,08,31,07,53,12.10
2002,08,31,07,54,12.20
2002,08,31,07,55,12.30
2002,08,31,07,56,12.40
2002,08,31,07,57,12.50
2002,08,31,07,58,12.50
2002,08,31,07,59,12.60
2002,08,31,08,00,12.60
2002,08,31,08,01,12.60
2002,08,31,08,02,12.60
2002,08,31,08,03,12.60
2002,08,31,08,04,12.70
2002,08,31,08,05,12.80
2002,08,31,08,06,13.00
2002,08,31,08,07,13.10
2002,08,31,08,08,13.20
2002,08,31,08,09,13.30
2002,08,31,08,10,13.30
2002,08,31,08,11,13.30
2002,08,31,08,12,13.20
2002,08,31,08,13,13.20
2002,08,31,08,14,13.20
2002,08,31,08,15,13.10
2002,08,31,08,16,13.10
2002,08,31,08,17,13.10
2002,08,31,08,18,13.10
2002,08,31,08,19,13.20
2002,08,31,08,20,13.30
2002,08,31,08,21,13.30
2002,08,31,08,22,13.50
2002,08,31,08,23,13.70
2002,08,31,08,24,13.80
2002,08,31,08,25,13.90
2002,08,31,08,26,14.10
2002,08,31,08,27,14.10
2002,08,31,08,28,14.20
2002,08,31,08,29,14.20
2002,08,31,08,30,14.30
2002,08,31,08,31,14.50
2002,08,31,08,32,14.70
2002,08,31,08,33,14.80
2002,08,31,08,34,15.00
2002,08,31,08,35,15.10
2002,08,31,08,36,15.10
2002,08,31,08,37,15.20
2002,08,31,08,38,15.20
2002,08,31,08,39,15.30
2002,08,31,08,40,15.40
2002,08,31,08,41,15.40
2002,08,31,08,42,15.30
2002,08,31,08,43,15.30
2002,08,31,08,44,15.30
2002,08,31,08,45,15.30
2002,08,31,08,46,15.30
2002,08,31,08,47,15.30
2002,08,31,08,48,15.30
2002,08,31,08,49,15.30
2002,08,31,08,50,15.30
2002,08,31,08,51,15.30
2002,08,31,08,52,15.40
2002,08,31,08,53,15.40
2002,08,31,08,54,15.40
2002,08,31,08,55,15.40
2002,08,31,08,56,15.40
2002,08,31,08,57,15.40
2002,08,31,08,58,15.40
2002,08,31,08,59,15.40
2002,08,31,09,00,15.40
2002,08,31,09,01,15.40
2002,08,31,09,02,15.40
2002,08,31,09,03,15.40
2002,08,31,09,04,15.00
2002,08,31,09,05,14.80
2002,08,31,09,06,14.80
2002,08,31,09,07,14.80
2002,08,31,09,08,14.80
2002,08,31,09,09,14.80
2002,08,31,09,10,14.80
2002,08,31,09,11,14.80
2002,08,31,09,12,14.80
2002,08,31,09,13,14.80
2002,08,31,09,14,14.80
2002,08,31,09,15,14.80
2002,08,31,10,07,16.60
2002,08,31,10,08,16.40
2002,08,31,10,09,16.40
2002,08,31,10,10,16.50
2002,08,31,10,11,16.60
2002,08,31,10,12,16.60
2002,08,31,10,13,16.60
2002,08,31,10,14,16.80
2002,08,31,10,15,16.90
2002,08,31,10,16,16.90
2002,08,31,10,17,16.80
2002,08,31,10,18,16.90
2002,08,31,10,19,17.00
2002,08,31,10,20,17.00
2002,08,31,10,21,17.00
2002,08,31,10,22,16.90
2002,08,31,10,23,16.90
2002,08,31,10,24,16.90
2002,08,31,10,25,16.80
2002,08,31,10,26,16.90
2002,08,31,10,27,16.70
2002,08,31,10,28,16.60
2002,08,31,10,29,16.30
2002,08,31,10,30,16.20
2002,08,31,10,31,16.00
2002,08,31,10,32,16.10
2002,08,31,10,33,16.10
2002,08,31,10,34,15.90
2002,08,31,10,35,15.60
2002,08,31,10,36,15.50
2002,08,31,10,37,15.50
2002,08,31,10,38,15.50
2002,08,31,10,39,15.50
2002,08,31,10,40,15.60
2002,08,31,10,41,15.60
2002,08,31,10,42,15.50
2002,08,31,10,43,15.60
2002,08,31,10,44,15.60
2002,08,31,10,45,15.70
2002,08,31,10,46,15.60
2002,08,31,10,47,15.60
2002,08,31,10,48,15.50
2002,08,31,10,49,15.60
2002,08,31,10,50,15.60
2002,08,31,10,51,15.40
2002,08,31,10,52,15.40
2002,08,31,10,53,15.40
2002,08,31,10,54,15.60
2002,08,31,10,55,15.80
2002,08,31,10,56,15.80
2002,08,31,10,57,15.90
2002,08,31,10,58,16.10
2002,08,31,10,59,16.20
2002,08,31,11,00,16.20
2002,08,31,11,01,16.30
2002,08,31,11,02,16.30
2002,08,31,11,03,16.40
2002,08,31,11,04,16.40
2002,08,31,11,05,16.40
2002,08,31,11,06,16.60
2002,08,31,11,07,16.90
2002,08,31,11,08,17.20
2002,08,31,11,09,17.20
2002,08,31,11,10,17.10
2002,08,31,11,11,17.10
2002,08,31,11,12,17.20
2002,08,31,11,13,17.30
2002,08,31,11,14,17.30
2002,08,31,11,15,17.30
2002,08,31,11,16,17.30
2002,08,31,11,17,17.30
2002,08,31,11,18,17.30
2002,08,31,11,19,17.30
2002,08,31,11,20,17.30
2002,08,31,11,21,17.30
2002,08,31,11,22,17.30
2002,08,31,11,23,17.70
2002,08,31,11,24,17.70
2002,08,31,11,25,17.70
2002,08,31,11,26,17.70
2002,08,31,11,27,17.70
2002,08,31,11,28,17.70
2002,08,31,11,29,17.70
2002,08,31,11,30,17.70
2002,08,31,11,31,17.70
2002,08,31,11,32,17.80
2002,08,31,11,33,17.80
2002,08,31,11,34,17.80
2002,08,31,11,35,17.80
2002,08,31,11,36,17.80
2002,08,31,11,37,17.80
2002,08,31,11,38,17.80
2002,08,31,11,39,17.80
2002,08,31,11,40,17.80
2002,08,31,11,41,17.60
2002,08,31,11,42,17.50
2002,08,31,11,43,17.50
2002,08,31,11,44,17.60
2002,08,31,11,45,17.50
2002,08,31,11,46,17.50
2002,08,31,11,47,17.60
2002,08,31,11,48,17.70
2002,08,31,11,49,17.70
2002,08,31,11,50,17.80
2002,08,31,11,51,17.90
2002,08,31,11,52,17.90
2002,08,31,11,53,17.90
2002,08,31,11,54,18.10
2002,08,31,11,55,18.20
2002,08,31,11,56,18.30
2002,08,31,11,57,18.40
2002,08,31,11,58,18.20
2002,08,31,11,59,18.10
2002,08,31,12,00,18.10
2002,08,31,12,01,18.10
2002,08,31,12,02,18.10
2002,08,31,12,03,18.20
2002,08,31,12,04,18.30
2002,08,31,12,05,18.50
2002,08,31,12,06,18.50
2002,08,31,12,07,18.60
2002,08,31,12,08,18.60
2002,08,31,12,09,18.60
2002,08,31,12,10,18.60
2002,08,31,12,11,18.50
2002,08,31,12,12,18.50
2002,08,31,12,13,18.50
2002,08,31,12,14,18.60
2002,08,31,12,15,18.60
2002,08,31,12,16,18.70
2002,08,31,12,17,18.80
2002,08,31,12,18,18.80
2002,08,31,12,19,18.90
2002,08,31,12,20,18.80
2002,08,31,12,21,18.80
2002,08,31,12,22,18.70
2002,08,31,12,23,18.70
2002,08,31,12,24,18.60
2002,08,31,12,25,18.50
2002,08,31,12,26,18.50
2002,08,31,12,27,18.60
2002,08,31,12,28,18.80
2002,08,31,12,29,18.80
2002,08,31,12,30,18.90
2002,08,31,12,31,18.90
2002,08,31,12,32,19.10
2002,08,31,12,33,19.10
2002,08,31,12,34,19.10
2002,08,31,12,35,19.10
2002,08,31,12,36,19.10
2002,08,31,12,37,19.10
2002,08,31,12,38,19.10
2002,08,31,12,39,19.10
2002,08,31,12,40,19.10
2002,08,31,12,41,19.10
2002,08,31,12,42,19.10
2002,08,31,12,43,19.10
2002,08,31,12,44,18.70
2002,08,31,12,45,18.40
2002,08,31,12,46,18.40
2002,08,31,12,47,18.30
2002,08,31,12,48,18.20
2002,08,31,12,49,18.20
2002,08,31,12,50,18.20
2002,08,31,12,51,18.30
2002,08,31,12,52,18.50
2002,08,31,12,53,18.70
2002,08,31,12,54,18.70
2002,08,31,12,55,18.80
2002,08,31,12,56,18.90
2002,08,31,12,57,18.80
2002,08,31,12,58,18.70
2002,08,31,12,59,18.80
2002,08,31,13,00,18.90
2002,08,31,13,01,18.90
2002,08,31,13,02,18.90
2002,08,31,13,03,19.00
2002,08,31,13,04,19.10
2002,08,31,13,05,19.20
2002,08,31,13,06,19.30
2002,08,31,13,07,19.40
2002,08,31,13,08,19.40
2002,08,31,13,09,19.50
2002,08,31,13,10,19.60
2002,08,31,13,11,19.50
2002,08,31,13,12,19.50
2002,08,31,13,13,19.50
2002,08,31,13,14,19.50
2002,08,31,13,15,19.60
2002,08,31,13,16,19.60
2002,08,31,13,17,19.60
2002,08,31,13,18,19.60
2002,08,31,13,19,19.60
2002,08,31,13,20,19.60
2002,08,31,13,21,19.60
2002,08,31,13,22,19.60
2002,08,31,13,23,19.60
2002,08,31,13,24,19.60
2002,08,31,13,25,19.70
2002,08,31,13,26,20.00
2002,08,31,13,27,20.00
2002,08,31,13,28,19.90
2002,08,31,13,29,19.90
2002,08,31,13,30,19.90
2002,08,31,13,31,19.90
2002,08,31,13,32,19.80
2002,08,31,13,33,19.50
2002,08,31,13,34,19.30
2002,08,31,13,35,19.10
2002,08,31,13,36,19.10
2002,08,31,13,37,19.10
2002,08,31,13,38,19.00
2002,08,31,13,39,18.90
2002,08,31,13,40,19.10
2002,08,31,13,41,19.10
2002,08,31,13,42,19.10
2002,08,31,13,43,19.00
2002,08,31,13,44,18.90
2002,08,31,13,45,18.90
2002,08,31,13,46,18.90
2002,08,31,13,47,18.90
2002,08,31,13,48,18.80
2002,08,31,13,49,18.70
2002,08,31,13,50,18.60
2002,08,31,13,51,18.50
2002,08,31,13,52,18.60
2002,08,31,13,53,18.60
2002,08,31,13,54,18.60
2002,08,31,13,55,18.60
2002,08,31,13,56,18.70
2002,08,31,13,57,18.70
2002,08,31,13,58,18.70
2002,08,31,13,59,18.80
2002,08,31,14,00,18.80
2002,08,31,14,01,18.80
2002,08,31,14,02,18.90
2002,08,31,14,03,19.00
2002,08,31,14,04,19.10
2002,08,31,14,05,19.10
2002,08,31,14,06,19.20
2002,08,31,14,07,19.20
2002,08,31,14,08,19.30
2002,08,31,14,09,19.30
2002,08,31,14,10,19.30
2002,08,31,14,11,19.30
2002,08,31,14,12,19.30
2002,08,31,14,13,19.00
2002,08,31,14,14,19.00
2002,08,31,14,15,19.00
2002,08,31,14,16,18.90
2002,08,31,14,17,18.80
2002,08,31,14,18,18.70
2002,08,31,14,19,18.70
2002,08,31,14,20,18.60
2002,08,31,14,21,18.60
2002,08,31,14,22,18.60
2002,08,31,14,23,18.60
2002,08,31,14,24,18.70
2002,08,31,14,25,18.80
2002,08,31,14,26,18.80
2002,08,31,14,27,18.80
2002,08,31,14,28,18.80
2002,08,31,14,29,18.90
2002,08,31,14,30,19.00
2002,08,31,14,31,19.30
2002,08,31,14,32,19.40
2002,08,31,14,33,19.50
2002,08,31,14,34,19.50
2002,08,31,14,35,19.50
2002,08,31,14,36,19.50
2002,08,31,14,37,19.60
2002,08,31,14,38,19.50
2002,08,31,14,39,19.40
2002,08,31,14,40,19.60
2002,08,31,14,41,19.60
2002,08,31,14,42,19.60
2002,08,31,14,43,19.80
2002,08,31,14,44,19.90
2002,08,31,14,45,19.90
2002,08,31,14,46,19.70
2002,08,31,14,47,19.70
2002,08,31,14,48,19.90
2002,08,31,14,49,19.90
2002,08,31,14,50,19.90
2002,08,31,14,51,20.00
2002,08,31,14,52,20.00
2002,08,31,14,53,19.90
2002,08,31,14,54,19.60
2002,08,31,14,55,19.50
2002,08,31,14,56,19.60
2002,08,31,14,57,19.50
2002,08,31,14,58,19.60
2002,08,31,14,59,19.70
2002,08,31,15,00,19.60
2002,08,31,15,01,19.60
2002,08,31,15,02,19.50
2002,08,31,15,03,19.50
2002,08,31,15,04,19.70
2002,08,31,15,05,19.80
2002,08,31,15,06,19.90
2002,08,31,15,07,20.00
2002,08,31,15,08,19.90
2002,08,31,15,09,20.00
2002,08,31,15,10,20.00
2002,08,31,15,11,20.10
2002,08,31,15,12,20.20
2002,08,31,15,13,20.30
2002,08,31,15,14,20.30
2002,08,31,15,15,20.20
2002,08,31,15,16,20.20
2002,08,31,15,17,20.20
2002,08,31,15,18,20.20
2002,08,31,15,19,20.20
2002,08,31,15,20,20.10
2002,08,31,15,21,20.00
2002,08,31,15,22,19.90
2002,08,31,15,23,19.80
2002,08,31,15,24,19.70
2002,08,31,15,25,19.60
2002,08,31,15,26,19.40
2002,08,31,15,27,19.30
2002,08,31,15,28,19.10
2002,08,31,15,29,19.10
2002,08,31,15,30,19.10
2002,08,31,15,31,19.10
2002,08,31,15,32,19.10
2002,08,31,15,33,19.10
2002,08,31,15,34,19.10
2002,08,31,15,35,19.10
2002,08,31,15,36,19.10
2002,08,31,15,37,18.90
2002,08,31,15,38,19.00
2002,08,31,15,39,19.10
2002,08,31,15,40,19.10
2002,08,31,15,41,19.20
2002,08,31,15,42,19.10
2002,08,31,15,43,19.20
2002,08,31,15,44,19.10
2002,08,31,15,45,19.10
2002,08,31,15,46,19.20
2002,08,31,15,47,19.20
2002,08,31,15,48,19.20
2002,08,31,15,49,19.20
2002,08,31,15,50,19.20
2002,08,31,15,51,19.20
2002,08,31,15,52,19.20
2002,08,31,15,53,19.60
2002,08,31,15,54,19.90
2002,08,31,15,55,19.80
2002,08,31,15,56,19.80
2002,08,31,15,57,19.70
2002,08,31,15,58,19.70
2002,08,31,15,59,19.60
2002,08,31,16,00,19.60
2002,08,31,16,01,19.60
2002,08,31,16,02,19.60
2002,08,31,16,03,19.60
2002,08,31,16,04,19.60
2002,08,31,16,05,19.50
2002,08,31,16,06,19.40
2002,08,31,16,07,19.10
2002,08,31,16,08,19.10
2002,08,31,16,09,19.10
2002,08,31,16,10,19.10
2002,08,31,16,11,19.10
2002,08,31,16,12,19.10
2002,08,31,16,13,19.00
2002,08,31,16,14,18.90
2002,08,31,16,15,18.90
2002,08,31,16,16,18.90
2002,08,31,16,17,18.80
2002,08,31,16,18,18.80
2002,08,31,16,19,18.80
2002,08,31,16,20,18.80
2002,08,31,16,21,18.70
2002,08,31,16,22,18.70
2002,08,31,16,23,18.90
2002,08,31,16,24,18.90
2002,08,31,16,25,18.80
2002,08,31,16,26,18.70
2002,08,31,16,27,18.60
2002,08,31,16,28,18.50
2002,08,31,16,29,18.60
2002,08,31,16,30,18.60
2002,08,31,16,31,18.60
2002,08,31,16,32,18.60
2002,08,31,16,33,18.70
2002,08,31,16,34,18.70
2002,08,31,16,35,18.70
2002,08,31,16,36,18.60
2002,08,31,16,37,18.60
2002,08,31,16,38,18.60
2002,08,31,16,39,18.60
2002,08,31,16,40,18.60
2002,08,31,16,41,18.60
2002,08,31,16,42,18.50
2002,08,31,16,43,18.50
2002,08,31,16,44,18.50
2002,08,31,16,45,18.70
2002,08,31,16,46,18.70
2002,08,31,16,47,18.70
2002,08,31,16,48,18.80
2002,08,31,16,49,18.90
2002,08,31,16,50,18.80
2002,08,31,16,51,18.80
2002,08,31,16,52,18.70
2002,08,31,16,53,18.70
2002,08,31,16,54,18.70
2002,08,31,16,55,18.60
2002,08,31,16,56,18.40
2002,08,31,16,57,18.40
2002,08,31,16,58,18.30
2002,08,31,16,59,18.20
2002,08,31,17,00,18.20
2002,08,31,17,01,18.20
2002,08,31,17,02,18.10
2002,08,31,17,03,18.10
2002,08,31,17,04,18.10
2002,08,31,17,05,18.20
2002,08,31,17,06,18.10
2002,08,31,17,07,18.20
2002,08,31,17,08,18.20
2002,08,31,17,09,18.20
2002,08,31,17,10,18.20
2002,08,31,17,11,18.20
2002,08,31,17,12,18.20
2002,08,31,17,13,18.20
2002,08,31,17,14,18.20
2002,08,31,17,15,18.30
2002,08,31,17,16,18.30
2002,08,31,17,17,18.30
2002,08,31,17,18,18.30
2002,08,31,17,19,18.30
2002,08,31,17,20,18.20
2002,08,31,17,21,18.10
2002,08,31,17,22,18.00
2002,08,31,17,23,18.00
2002,08,31,17,24,17.90
2002,08,31,17,25,17.80
2002,08,31,17,26,17.70
2002,08,31,17,27,17.60
2002,08,31,17,28,17.50
2002,08,31,17,29,17.50
2002,08,31,17,30,17.40
2002,08,31,17,31,17.20
2002,08,31,17,32,17.10
2002,08,31,17,33,17.00
2002,08,31,17,34,16.80
2002,08,31,17,35,16.70
2002,08,31,17,36,16.60
2002,08,31,17,37,16.60
2002,08,31,17,38,16.60
2002,08,31,17,39,16.50
2002,08,31,17,40,16.50
2002,08,31,17,41,16.50
2002,08,31,17,42,16.50
2002,08,31,17,43,16.40
2002,08,31,17,44,16.40
2002,08,31,17,45,16.40
2002,08,31,17,46,16.40
2002,08,31,17,47,16.40
2002,08,31,17,48,16.40
2002,08,31,17,49,16.40
2002,08,31,17,50,16.30
2002,08,31,17,51,16.30
2002,08,31,17,52,16.30
2002,08,31,17,53,16.20
2002,08,31,17,54,16.10
2002,08,31,17,55,16.10
2002,08,31,17,56,16.10
2002,08,31,17,57,16.10
2002,08,31,17,58,16.10
2002,08,31,17,59,16.10
2002,08,31,18,00,16.10
2002,08,31,18,01,16.10
2002,08,31,18,02,16.20
2002,08,31,18,03,16.20
2002,08,31,18,04,16.20
2002,08,31,18,05,16.30
2002,08,31,18,06,16.40
2002,08,31,18,07,16.40
2002,08,31,18,08,16.40
2002,08,31,18,09,16.60
2002,08,31,18,10,16.70